When you browse on this site, cookies collect data to enhance your experience and personalize the content and advertising you see.
Visit our Privacy Policy to learn more. By continuing to use the site, you agree to this use of cookies and data.
  • In Hungary
  • List of Countries
  • For 7 days
  • Water Temperature
  • Weather Map
  • News
  • Weather Widgets
  • user-avatar
    Login

    Hourly Weather Zelenche

    Today, 23 August, Friday

    Time Temperature Precipitation Wind Pressure Humidity
    00:00 +16°C° 0 mm 2 mps 739 mmHg 92%
    01:00 +16°C° 0 mm 2 mps 739 mmHg 93%
    02:00 +16°C° 0 mm 2 mps 739 mmHg 93%
    03:00 +15°C° 0 mm 2 mps 739 mmHg 94%
    04:00 +15°C° 0 mm 2 mps 739 mmHg 94%
    05:00 +15°C° 0 mm 2 mps 738 mmHg 95%
    06:00 +16°C° 0 mm 3 mps 739 mmHg 89%
    07:00 +17°C° 0 mm 3 mps 739 mmHg 84%
    08:00 +19°C° 0 mm 3 mps 739 mmHg 78%
    09:00 +20°C° 0 mm 3 mps 739 mmHg 72%
    10:00 +22°C° 0 mm 3 mps 739 mmHg 65%
    11:00 +24°C° 0 mm 3 mps 739 mmHg 59%
    12:00 +25°C° 0 mm 3 mps 739 mmHg 56%
    13:00 +26°C° 0 mm 3 mps 739 mmHg 54%
    14:00 +27°C° 0 mm 3 mps 739 mmHg 51%
    15:00 +26°C° 0 mm 4 mps 739 mmHg 54%
    16:00 +26°C° 0 mm 4 mps 738 mmHg 57%
    17:00 +25°C° 0 mm 5 mps 738 mmHg 59%
    18:00 +22°C° 0 mm 4 mps 738 mmHg 65%
    19:00 +21°C° 0 mm 3 mps 738 mmHg 71%
    20:00 +19°C° 0 mm 3 mps 738 mmHg 77%
    21:00 +18°C° 0 mm 3 mps 738 mmHg 79%
    22:00 +17°C° 0 mm 3 mps 738 mmHg 81%
    23:00 +16°C° 0 mm 3 mps 738 mmHg 83%

    Tomorrow, 24 August, Saturday

    Time Temperature Precipitation Wind Pressure Humidity
    00:00 +16°C° 0 mm 3 mps 738 mmHg 84%
    01:00 +14°C° 0 mm 3 mps 738 mmHg 85%
    02:00 +15°C° 0 mm 2 mps 738 mmHg 86%
    03:00 +15°C° 0 mm 2 mps 738 mmHg 88%
    04:00 +14°C° 0 mm 2 mps 738 mmHg 89%
    05:00 +14°C° 0 mm 2 mps 738 mmHg 91%
    06:00 +14°C° 0 mm 3 mps 738 mmHg 86%
    07:00 +17°C° 0 mm 3 mps 738 mmHg 80%
    08:00 +19°C° 0 mm 3 mps 738 mmHg 75%
    09:00 +20°C° 0 mm 3 mps 738 mmHg 67%
    10:00 +22°C° 0 mm 3 mps 739 mmHg 60%
    11:00 +25°C° 0 mm 3 mps 739 mmHg 52%
    12:00 +26°C° 0 mm 3 mps 738 mmHg 49%
    13:00 +26°C° 0 mm 3 mps 738 mmHg 47%
    14:00 +27°C° 0 mm 3 mps 738 mmHg 44%
    15:00 +27°C° 0 mm 3 mps 737 mmHg 45%
    16:00 +27°C° 0 mm 3 mps 737 mmHg 46%
    17:00 +26°C° 0 mm 3 mps 737 mmHg 48%
    18:00 +24°C° 0 mm 3 mps 737 mmHg 54%
    19:00 +21°C° 0 mm 3 mps 737 mmHg 61%
    20:00 +19°C° 0 mm 4 mps 737 mmHg 67%
    21:00 +18°C° 0 mm 3 mps 737 mmHg 69%
    22:00 +18°C° 0 mm 3 mps 737 mmHg 70%
    23:00 +17°C° 0 mm 3 mps 737 mmHg 72%

    Day after tomorrow, 25 August, Sunday

    Time Temperature Precipitation Wind Pressure Humidity
    00:00 +16°C° 0 mm 3 mps 737 mmHg 71%
    01:00 +16°C° 0 mm 3 mps 737 mmHg 71%
    02:00 +16°C° 0 mm 3 mps 737 mmHg 70%
    03:00 +14°C° 0 mm 3 mps 737 mmHg 70%
    04:00 +14°C° 0 mm 3 mps 737 mmHg 69%
    05:00 +15°C° 0 mm 2 mps 737 mmHg 69%
    06:00 +16°C° 0 mm 3 mps 737 mmHg 67%
    07:00 +17°C° 0 mm 3 mps 737 mmHg 64%
    08:00 +19°C° 0 mm 3 mps 737 mmHg 62%
    09:00 +20°C° 0 mm 3 mps 737 mmHg 57%
    10:00 +22°C° 0 mm 3 mps 738 mmHg 53%
    11:00 +25°C° 0 mm 4 mps 738 mmHg 48%
    12:00 +26°C° 0 mm 4 mps 738 mmHg 45%
    13:00 +26°C° 0 mm 4 mps 737 mmHg 43%
    14:00 +27°C° 0 mm 4 mps 737 mmHg 40%
    15:00 +27°C° 0 mm 4 mps 737 mmHg 42%
    16:00 +26°C° 0 mm 4 mps 737 mmHg 44%
    17:00 +25°C° 0 mm 4 mps 736 mmHg 46%
    18:00 +23°C° 0 mm 4 mps 737 mmHg 50%
    19:00 +21°C° 0 mm 4 mps 737 mmHg 54%
    20:00 +19°C° 0 mm 4 mps 737 mmHg 58%
    21:00 +18°C° 0 mm 4 mps 737 mmHg 58%
    22:00 +18°C° 0 mm 4 mps 737 mmHg 59%
    23:00 +17°C° 0 mm 4 mps 737 mmHg 59%

    26 August, Monday

    Time Temperature Precipitation Wind Pressure Humidity
    00:00 +17°C° 0 mm 3 mps 737 mmHg 60%
    01:00 +16°C° 0 mm 3 mps 737 mmHg 61%
    02:00 +16°C° 0 mm 3 mps 737 mmHg 62%
    03:00 +14°C° 0 mm 3 mps 737 mmHg 64%
    04:00 +14°C° 0 mm 3 mps 737 mmHg 65%
    05:00 +13°C° 0 mm 3 mps 736 mmHg 67%
    06:00 +16°C° 0 mm 3 mps 737 mmHg 64%
    07:00 +18°C° 0 mm 3 mps 737 mmHg 60%
    08:00 +20°C° 0 mm 4 mps 737 mmHg 56%
    09:00 +22°C° 0 mm 4 mps 737 mmHg 51%
    10:00 +25°C° 0 mm 4 mps 737 mmHg 45%
    11:00 +27°C° 0 mm 4 mps 737 mmHg 40%
    12:00 +28°C° 0 mm 4 mps 737 mmHg 38%
    13:00 +29°C° 0 mm 4 mps 737 mmHg 35%
    14:00 +29°C° 0 mm 3 mps 737 mmHg 33%
    15:00 +29°C° 0 mm 3 mps 736 mmHg 35%
    16:00 +29°C° 0 mm 3 mps 736 mmHg 36%
    17:00 +28°C° 0 mm 3 mps 736 mmHg 38%
    18:00 +26°C° 0 mm 3 mps 736 mmHg 44%
    19:00 +24°C° 0 mm 3 mps 736 mmHg 50%
    20:00 +21°C° 0 mm 3 mps 736 mmHg 56%
    21:00 +20°C° 0 mm 3 mps 736 mmHg 58%
    22:00 +19°C° 0 mm 3 mps 736 mmHg 60%
    23:00 +19°C° 0 mm 3 mps 736 mmHg 61%

    27 August, Tuesday

    Time Temperature Precipitation Wind Pressure Humidity
    00:00 +18°C° 0 mm 3 mps 736 mmHg 63%
    01:00 +18°C° 0 mm 3 mps 736 mmHg 65%
    02:00 +17°C° 0 mm 3 mps 736 mmHg 67%
    03:00 +17°C° 0 mm 3 mps 736 mmHg 68%
    04:00 +17°C° 0 mm 3 mps 736 mmHg 69%
    05:00 +16°C° 0 mm 3 mps 736 mmHg 70%
    06:00 +18°C° 0 mm 3 mps 736 mmHg 66%
    07:00 +19°C° 0 mm 3 mps 736 mmHg 62%
    08:00 +21°C° 0 mm 3 mps 736 mmHg 58%
    09:00 +24°C° 0 mm 3 mps 736 mmHg 52%
    10:00 +26°C° 0 mm 3 mps 737 mmHg 46%
    11:00 +28°C° 0 mm 3 mps 737 mmHg 39%
    12:00 +29°C° 0 mm 3 mps 736 mmHg 37%
    13:00 +30°C° 0 mm 2 mps 736 mmHg 35%
    14:00 +30°C° 0 mm 2 mps 736 mmHg 32%
    15:00 +30°C° 0 mm 2 mps 736 mmHg 34%
    16:00 +30°C° 0 mm 3 mps 736 mmHg 36%
    17:00 +29°C° 0 mm 3 mps 736 mmHg 38%
    18:00 +27°C° 0 mm 3 mps 736 mmHg 45%
    19:00 +25°C° 0 mm 4 mps 736 mmHg 52%
    20:00 +22°C° 0 mm 4 mps 736 mmHg 59%
    21:00 +21°C° 0 mm 4 mps 736 mmHg 61%
    22:00 +20°C° 0 mm 4 mps 736 mmHg 62%
    23:00 +19°C° 0 mm 4 mps 736 mmHg 64%

    28 August, Wednesday

    Time Temperature Precipitation Wind Pressure Humidity
    00:00 +19°C° 0 mm 3 mps 736 mmHg 65%
    01:00 +18°C° 0 mm 3 mps 736 mmHg 66%
    02:00 +17°C° 0 mm 2 mps 736 mmHg 67%
    03:00 +17°C° 0 mm 2 mps 736 mmHg 67%
    04:00 +16°C° 0 mm 2 mps 736 mmHg 68%
    05:00 +16°C° 0 mm 2 mps 736 mmHg 68%
    06:00 +18°C° 0 mm 2 mps 736 mmHg 64%
    07:00 +19°C° 0 mm 3 mps 737 mmHg 61%
    08:00 +21°C° 0 mm 3 mps 737 mmHg 57%
    09:00 +24°C° 0 mm 3 mps 737 mmHg 51%
    10:00 +26°C° 0 mm 3 mps 737 mmHg 46%
    11:00 +27°C° 0 mm 3 mps 737 mmHg 40%
    12:00 +28°C° 0 mm 3 mps 737 mmHg 37%
    13:00 +29°C° 0 mm 3 mps 736 mmHg 35%
    14:00 +29°C° 0 mm 2 mps 736 mmHg 32%
    15:00 +29°C° 0 mm 3 mps 736 mmHg 34%
    16:00 +29°C° 0 mm 3 mps 735 mmHg 35%
    17:00 +28°C° 0 mm 3 mps 735 mmHg 36%
    18:00 +26°C° 0 mm 3 mps 735 mmHg 42%
    19:00 +24°C° 0 mm 3 mps 735 mmHg 47%
    20:00 +21°C° 0 mm 3 mps 735 mmHg 52%
    21:00 +20°C° 0 mm 4 mps 735 mmHg 58%
    22:00 +20°C° 0 mm 4 mps 735 mmHg 64%
    23:00 +19°C° 0 mm 4 mps 736 mmHg 70%
    Show more